QPF
0.01 0.00 0.00 0.00 0.00 0.00 0.01 0.01 0.00 0.00 0.00 0.00 0.00 0.00 0.00 0.00 0.00 0.00 0.00 0.00 0.00 0.00 0.01 0.01 0.02 0.05 0.07 0.08 0.09 0.11 0.09 0.11 0.15 0.12 0.05 0.01 0.01 0.05
0.00 0.00 0.00 0.00 0.00 0.02 0.01 0.01 0.01 0.00 0.00 0.00 0.00 0.00 0.00 0.00 0.00 0.00 0.00 0.00 0.00 0.00 0.00 0.00 0.00 0.00 0.01 0.03 0.04 0.07 0.08 0.07 0.12 0.19 0.15 0.06 0.09 0.03
0.00 0.00 0.00 0.00 0.00 0.00 0.00 0.01 0.00 0.00 0.00 0.00 0.00 0.00 0.00 0.00 0.00 0.00 0.00 0.00 0.00 0.00 0.00 0.00 0.00 0.00 0.00 0.00 0.00 0.02 0.04 0.03 0.02 0.03 0.09 0.08 0.06 0.15
0.00 0.00 0.01 0.01 0.03 0.00 0.00 0.00 0.00 0.00 0.00 0.00 0.00 0.00 0.00 0.00 0.00 0.00 0.00 0.00 0.00 0.00 0.00 0.00 0.00 0.00 0.00 0.00 0.00 0.00 0.00 0.00 0.02 0.02 0.02 0.02 0.03 0.05
0.00 0.00 0.02 0.06 0.14 0.00 0.02 0.02 0.00 0.00 0.00 0.00 0.00 0.00 0.00 0.00 0.00 0.00 0.00 0.00 0.00 0.00 0.00 0.00 0.00 0.00 0.00 0.00 0.00 0.00 0.00 0.00 0.00 0.03 0.04 0.03 0.03 0.03
0.00 0.00 0.04 0.05 0.06 0.01 0.01 0.01 0.00 0.00 0.00 0.00 0.00 0.00 0.00 0.00 0.00 0.00 0.00 0.00 0.00 0.00 0.00 0.00 0.00 0.00 0.00 0.00 0.00 0.00 0.00 0.00 0.00 0.00 0.00 0.00 0.00 0.01
0.00 0.01 0.02 0.10 0.08 0.00 0.00 0.00 0.00 0.00 0.00 0.00 0.00 0.00 0.00 0.00 0.00 0.00 0.00 0.00 0.00 0.00 0.00 0.00 0.00 0.00 0.00 0.00 0.00 0.00 0.00 0.00 0.00 0.00 0.00 0.00 0.00 0.00
0.00 0.01 0.01 0.05 0.10 0.07 0.06 0.01 0.00 0.00 0.00 0.00 0.00 0.00 0.00 0.00 0.00 0.00 0.00 0.00 0.00 0.00 0.00 0.00 0.00 0.00 0.00 0.00 0.00 0.00 0.00 0.00 0.00 0.00 0.00 0.00 0.00 0.00
0.00 0.00 0.00 0.07 0.21 0.14 0.07 0.04 0.00 0.00 0.00 0.00 0.00 0.00 0.00 0.00 0.00 0.00 0.00 0.00 0.00 0.00 0.00 0.00 0.00 0.00 0.00 0.00 0.00 0.00 0.00 0.00 0.00 0.00 0.00 0.00 0.00 0.00
0.00 0.00 0.02 0.08 0.16 0.10 0.09 0.04 0.00 0.00 0.00 0.00 0.00 0.00 0.00 0.00 0.00 0.00 0.00 0.00 0.00 0.00 0.00 0.00 0.00 0.00 0.00 0.00 0.00 0.00 0.00 0.00 0.00 0.00 0.00 0.00 0.00 0.00
0.01 0.08 0.13 0.20 0.25 0.21 0.14 0.06 0.01 0.00 0.00 0.00 0.00 0.00 0.00 0.00 0.00 0.00 0.00 0.00 0.00 0.00 0.00 0.00 0.00 0.00 0.00 0.00 0.00 0.00 0.00 0.00 0.00 0.00 0.00 0.00 0.00 0.00
0.19 0.36 0.35 0.31 0.32 0.23 0.11 0.06 0.03 0.01 0.00 0.00 0.00 0.00 0.00 0.00 0.00 0.00 0.00 0.00 0.00 0.00 0.00 0.00 0.00 0.00 0.00 0.00 0.00 0.00 0.00 0.00 0.00 0.00 0.00 0.00 0.00 0.00
0.30 0.33 0.28 0.26 0.18 0.08 0.06 0.04 0.02 0.01 0.00 0.00 0.00 0.00 0.00 0.00 0.00 0.00 0.00 0.00 0.00 0.00 0.00 0.00 0.00 0.00 0.00 0.00 0.00 0.00 0.00 0.00 0.00 0.00 0.00 0.00 0.00 0.00
0.34 0.40 0.32 0.19 0.09 0.04 0.03 0.03 0.02 0.01 0.00 0.00 0.00 0.00 0.00 0.00 0.00 0.00 0.00 0.00 0.00 0.00 0.00 0.00 0.00 0.00 0.00 0.00 0.00 0.00 0.00 0.00 0.00 0.00 0.00 0.00 0.00 0.00
0.46 0.31 0.16 0.08 0.02 0.01 0.01 0.00 0.00 0.00 0.00 0.00 0.00 0.00 0.00 0.00 0.00 0.00 0.00 0.00 0.00 0.00 0.00 0.00 0.00 0.00 0.00 0.00 0.00 0.00 0.00 0.00 0.00 0.00 0.00 0.00 0.00 0.00
0.19 0.19 0.07 0.01 0.00 0.00 0.00 0.00 0.00 0.00 0.00 0.00 0.00 0.00 0.00 0.00 0.00 0.00 0.00 0.00 0.00 0.00 0.00 0.00 0.00 0.00 0.00 0.00 0.00 0.00 0.00 0.00 0.00 0.00 0.00 0.00 0.00 0.00
0.05 0.06 0.03 0.01 0.00 0.00 0.00 0.00 0.00 0.00 0.00 0.00 0.00 0.00 0.00 0.00 0.00 0.00 0.00 0.00 0.00 0.00 0.00 0.00 0.00 0.00 0.00 0.00 0.00 0.00 0.00 0.00 0.00 0.00 0.00 0.00 0.00 0.00
0.02 0.01 0.01 0.00 0.00 0.00 0.00 0.00 0.00 0.00 0.00 0.00 0.00 0.00 0.00 0.00 0.00 0.00 0.00 0.00 0.00 0.00 0.00 0.00 0.00 0.00 0.00 0.00 0.00 0.00 0.00 0.00 0.00 0.00 0.00 0.00 0.00 0.00
0.01 0.00 0.00 0.00 0.00 0.00 0.00 0.00 0.00 0.00 0.00 0.00 0.00 0.00 0.00 0.00 0.00 0.00 0.00 0.00 0.00 0.00 0.00 0.00 0.00 0.00 0.00 0.00 0.00 0.00 0.00 0.00 0.00 0.00 0.00 0.00 0.00 0.00
0.00 0.00 0.00 0.00 0.00 0.00 0.00 0.00 0.00 0.00 0.00 0.00 0.00 0.00 0.00 0.00 0.00 0.00 0.00 0.00 0.00 0.00 0.00 0.00 0.00 0.00 0.00 0.00 0.00 0.00 0.00 0.00 0.00 0.00 0.00 0.00 0.00 0.00
0.00 0.00 0.00 0.00 0.00 0.00 0.00 0.00 0.00 0.00 0.00 0.00 0.00 0.00 0.00 0.00 0.00 0.00 0.00 0.00 0.00 0.00 0.00 0.00 0.00 0.00 0.00 0.00 0.00 0.00 0.00 0.00 0.00 0.00 0.00 0.00 0.00 0.00
0.00 0.00 0.00 0.00 0.00 0.00 0.00 0.00 0.00 0.00 0.00 0.00 0.00 0.00 0.00 0.00 0.00 0.00 0.00 0.00 0.00 0.00 0.00 0.00 0.00 0.00 0.00 0.00 0.00 0.00 0.00 0.00 0.00 0.00 0.00 0.00 0.00 0.00
0.00 0.00 0.00 0.00 0.00 0.00 0.00 0.00 0.00 0.00 0.00 0.00 0.00 0.00 0.00 0.00 0.00 0.00 0.00 0.00 0.00 0.00 0.00 0.00 0.00 0.00 0.00 0.00 0.00 0.00 0.00 0.00 0.00 0.00 0.00 0.00 0.00 0.00
MSLP
1013.98 1014.01 1014.08 1014.03 1014.14 1014.31 1014.42 1014.73 1015.19 1015.72 1015.52 1014.85 1014.61 1013.99 1013.81 1013.75 1013.57 1013.45 1013.53 1013.63 1013.82 1014.07 1014.33 1014.52 1014.65 1014.85 1015.09 1015.19 1015.25 1015.47 1015.66 1015.81 1016.08 1016.53 1016.75 1016.97 1017.27 1017.47
1013.58 1013.73 1013.66 1013.76 1013.94 1014.06 1014.27 1014.31 1014.56 1014.99 1015.36 1014.85 1014.74 1014.42 1014.03 1013.76 1013.56 1013.41 1013.51 1013.58 1013.78 1013.93 1014.01 1014.20 1014.47 1014.69 1014.77 1014.78 1014.80 1014.79 1014.70 1014.84 1015.05 1015.29 1015.68 1016.08 1016.42 1016.70
1013.22 1013.29 1013.31 1013.44 1013.52 1013.64 1013.88 1014.10 1014.41 1014.72 1015.16 1015.08 1014.87 1014.54 1014.49 1014.28 1013.88 1013.56 1013.60 1013.70 1013.73 1013.73 1013.74 1013.91 1014.14 1014.24 1014.34 1014.41 1014.43 1014.44 1014.35 1014.26 1014.36 1014.53 1014.74 1014.87 1015.10 1015.63
1012.80 1012.92 1012.93 1013.04 1013.26 1013.36 1013.57 1014.01 1014.28 1014.61 1014.96 1015.10 1014.98 1014.85 1014.51 1014.22 1014.07 1013.93 1013.81 1013.73 1013.78 1013.60 1013.56 1013.64 1013.67 1013.71 1013.69 1013.72 1013.70 1013.73 1013.83 1013.88 1013.93 1013.98 1013.90 1014.07 1014.32 1014.44
1012.08 1012.23 1012.09 1012.33 1012.50 1012.74 1013.11 1013.56 1013.87 1014.18 1014.67 1015.11 1015.25 1015.05 1014.63 1014.35 1014.14 1014.10 1014.06 1013.89 1013.67 1013.59 1013.51 1013.45 1013.48 1013.27 1013.11 1013.14 1013.19 1013.07 1012.95 1013.03 1013.16 1013.20 1013.16 1013.29 1013.38 1013.50
1011.37 1011.46 1011.46 1011.70 1011.98 1012.32 1012.66 1012.68 1013.12 1013.56 1014.12 1014.63 1014.98 1014.94 1015.01 1014.99 1014.86 1014.64 1014.49 1014.25 1013.91 1013.32 1013.17 1012.94 1012.70 1012.53 1012.57 1012.59 1012.66 1012.57 1012.43 1012.39 1012.51 1012.64 1012.73 1012.73 1012.66 1012.77
1010.75 1010.78 1010.85 1010.94 1010.98 1011.16 1011.76 1012.26 1012.12 1012.46 1012.96 1013.62 1014.23 1014.50 1014.59 1014.74 1015.01 1015.04 1014.96 1014.57 1014.12 1013.59 1013.25 1013.00 1012.89 1012.70 1012.48 1012.42 1012.36 1012.10 1011.89 1011.82 1011.75 1011.69 1011.80 1011.90 1011.96 1012.11
1010.02 1009.91 1010.03 1010.05 1010.50 1010.98 1011.54 1011.30 1011.31 1011.83 1012.48 1013.05 1013.62 1013.99 1014.07 1014.34 1014.30 1014.34 1014.49 1014.83 1014.57 1013.54 1013.60 1013.30 1012.85 1012.74 1012.35 1012.10 1011.91 1011.65 1011.54 1011.35 1011.24 1011.19 1011.18 1011.18 1011.17 1010.97
1008.92 1009.07 1009.52 1009.84 1010.43 1010.83 1010.71 1011.88 1012.11 1012.85 1012.58 1012.87 1013.63 1013.88 1013.97 1014.10 1014.38 1014.65 1014.54 1014.67 1014.56 1013.52 1013.50 1013.39 1012.67 1012.60 1011.97 1011.71 1011.37 1011.14 1010.96 1010.94 1010.92 1010.70 1010.68 1010.64 1010.54 1010.29
1007.99 1008.29 1008.83 1009.04 1009.39 1010.06 1011.45 1011.75 1012.05 1012.42 1012.98 1013.61 1013.86 1014.00 1013.89 1013.97 1014.27 1014.38 1014.76 1014.80 1014.51 1013.74 1013.52 1013.26 1012.52 1012.09 1011.60 1011.21 1010.82 1010.57 1010.37 1010.31 1010.41 1010.29 1009.91 1009.69 1009.78 1009.73
1007.21 1007.75 1008.31 1008.63 1009.02 1010.04 1011.51 1012.49 1012.57 1013.40 1013.54 1013.60 1013.90 1014.40 1014.35 1014.18 1014.01 1014.23 1014.51 1014.76 1014.62 1014.30 1013.55 1013.44 1012.66 1012.27 1011.61 1011.00 1010.36 1010.05 1010.05 1010.03 1009.84 1009.89 1009.74 1009.27 1009.03 1009.19
1008.26 1009.14 1009.30 1009.67 1010.87 1011.21 1009.14 1012.07 1013.16 1013.96 1013.73 1013.75 1014.64 1014.26 1014.66 1014.50 1013.97 1014.33 1014.66 1014.91 1014.95 1014.45 1013.60 1013.73 1013.13 1012.98 1012.01 1010.80 1010.54 1010.22 1009.87 1009.45 1009.35 1009.22 1009.11 1008.79 1008.57 1008.46
1008.30 1008.97 1008.92 1008.41 1009.07 1008.90 1011.17 1011.34 1012.32 1012.99 1013.46 1014.90 1014.79 1014.86 1015.10 1015.14 1014.77 1014.64 1014.41 1014.60 1015.01 1015.09 1014.21 1014.09 1013.59 1013.47 1013.33 1012.05 1010.96 1010.47 1010.09 1009.53 1009.14 1008.70 1008.50 1008.19 1007.81 1007.88
1007.42 1007.93 1008.03 1008.03 1007.99 1009.54 1010.25 1009.46 1011.19 1012.49 1013.14 1014.27 1014.91 1014.55 1014.65 1015.02 1015.02 1014.75 1013.86 1014.27 1014.33 1014.47 1013.88 1014.09 1014.02 1013.59 1013.41 1012.77 1011.58 1010.41 1010.11 1009.62 1009.07 1008.60 1008.44 1007.88 1007.39 1007.07
1007.10 1007.77 1008.10 1008.22 1008.84 1010.39 1011.54 1011.23 1011.69 1012.62 1012.74 1013.62 1014.03 1014.24 1014.73 1014.79 1014.81 1015.03 1014.47 1014.25 1014.27 1013.69 1013.58 1013.44 1013.50 1013.27 1013.29 1012.86 1011.96 1010.92 1010.29 1009.25 1009.15 1008.66 1008.22 1007.97 1007.47 1006.96
1007.21 1008.62 1009.46 1009.51 1009.79 1009.93 1010.95 1011.36 1011.49 1011.29 1012.87 1013.44 1013.75 1014.30 1014.50 1014.83 1015.02 1014.86 1014.83 1014.61 1014.61 1013.90 1013.29 1013.22 1012.97 1012.80 1012.63 1012.12 1011.79 1010.90 1010.61 1010.05 1008.61 1008.29 1007.89 1007.50 1007.21 1006.80
1007.45 1008.49 1009.33 1009.94 1009.95 1010.57 1011.10 1011.27 1011.40 1011.79 1012.58 1013.24 1014.13 1014.55 1014.64 1014.71 1014.96 1014.87 1014.71 1014.74 1014.74 1014.35 1013.79 1012.94 1012.61 1012.25 1011.98 1011.33 1010.88 1010.40 1010.07 1009.51 1008.66 1008.11 1007.65 1006.82 1006.32 1006.10
1007.93 1008.74 1009.32 1009.40 1010.16 1010.48 1010.87 1011.27 1011.85 1012.28 1013.03 1013.94 1014.08 1014.46 1014.95 1014.87 1014.78 1014.44 1014.48 1014.67 1014.38 1013.90 1013.47 1012.90 1012.73 1012.40 1011.45 1010.39 1009.82 1009.61 1009.39 1008.84 1008.17 1007.76 1007.39 1006.81 1005.65 1005.01
1008.18 1008.72 1009.30 1009.83 1010.11 1010.67 1011.16 1011.65 1012.39 1012.84 1013.42 1013.85 1014.13 1014.01 1014.73 1014.88 1014.60 1014.20 1014.41 1014.33 1013.72 1013.36 1012.67 1012.46 1012.38 1012.59 1012.14 1010.93 1009.56 1008.89 1008.62 1007.98 1007.61 1007.20 1006.79 1006.18 1005.24 1004.20
1008.53 1008.78 1009.28 1009.78 1010.17 1010.81 1011.43 1012.10 1012.71 1012.96 1013.56 1014.02 1014.38 1014.37 1014.48 1014.64 1014.74 1014.46 1014.21 1014.07 1013.65 1013.17 1012.66 1012.18 1011.90 1011.91 1012.10 1011.55 1010.65 1008.64 1008.06 1007.62 1007.09 1006.37 1005.58 1004.75 1004.12 1003.32
1009.18 1009.40 1009.54 1010.02 1010.73 1011.12 1011.28 1012.02 1012.48 1013.06 1013.53 1014.01 1014.27 1014.24 1014.46 1014.70 1014.62 1014.29 1013.98 1013.78 1013.51 1013.11 1012.63 1011.80 1010.88 1010.79 1010.86 1010.83 1010.45 1009.05 1007.21 1006.75 1006.46 1005.93 1004.93 1004.27 1003.26 1002.57
1009.54 1010.12 1010.46 1010.75 1011.40 1011.63 1011.82 1012.14 1012.66 1012.83 1013.68 1013.98 1014.03 1014.06 1014.24 1014.36 1014.36 1014.18 1013.85 1013.64 1013.23 1012.77 1012.04 1011.03 1010.31 1010.40 1010.53 1010.45 1009.99 1009.14 1007.63 1006.12 1005.49 1005.02 1004.18 1003.89 1003.26 1002.37
1010.35 1010.40 1010.75 1011.72 1012.02 1011.92 1011.86 1012.55 1012.76 1013.13 1013.69 1013.74 1013.84 1013.89 1014.15 1014.46 1014.33 1014.01 1013.67 1013.30 1012.91 1012.30 1011.68 1010.98 1010.45 1010.32 1010.06 1010.04 1009.69 1008.95 1008.04 1006.57 1005.81 1004.78 1003.67 1003.07 1002.39 1001.70
Thickness
5796 5795 5792 5792 5790 5789 5786 5783 5772 5761 5761 5770 5769 5776 5774 5772 5771 5770 5769 5766 5762 5758 5753 5750 5748 5745 5743 5740 5738 5736 5733 5732 5729 5724 5721 5718 5717 5717
5798 5796 5796 5795 5792 5789 5786 5783 5779 5771 5759 5767 5766 5767 5769 5770 5769 5768 5764 5761 5758 5756 5754 5750 5746 5742 5740 5739 5739 5738 5738 5737 5735 5731 5727 5723 5719 5716
5800 5798 5797 5796 5793 5792 5788 5784 5780 5774 5765 5765 5766 5767 5763 5762 5764 5764 5762 5758 5755 5753 5752 5749 5746 5743 5740 5736 5735 5734 5734 5735 5734 5732 5730 5729 5727 5722
5800 5798 5796 5796 5792 5791 5788 5783 5779 5774 5767 5763 5765 5765 5766 5766 5763 5762 5759 5756 5753 5752 5749 5746 5743 5740 5738 5737 5736 5733 5730 5728 5729 5728 5728 5728 5726 5727
5805 5802 5803 5800 5797 5794 5790 5785 5780 5775 5768 5760 5757 5758 5760 5760 5759 5756 5753 5751 5750 5747 5745 5742 5739 5739 5736 5732 5730 5729 5729 5727 5725 5725 5726 5725 5725 5725
5808 5807 5806 5802 5797 5791 5788 5787 5781 5774 5767 5760 5755 5753 5749 5747 5744 5744 5741 5741 5740 5742 5741 5739 5738 5737 5734 5731 5727 5723 5721 5721 5720 5718 5717 5718 5719 5721
5810 5810 5808 5805 5803 5798 5789 5782 5782 5777 5770 5763 5756 5752 5749 5744 5738 5734 5731 5730 5730 5732 5734 5731 5730 5727 5724 5721 5719 5718 5716 5713 5713 5716 5715 5714 5714 5714
5810 5812 5809 5806 5798 5788 5780 5782 5783 5774 5765 5758 5752 5746 5744 5738 5737 5733 5729 5720 5716 5722 5722 5716 5719 5716 5715 5712 5709 5709 5707 5707 5708 5707 5708 5709 5708 5712
5815 5812 5805 5801 5792 5783 5778 5769 5765 5757 5758 5754 5744 5739 5735 5732 5726 5717 5716 5711 5707 5714 5714 5709 5711 5708 5707 5704 5702 5701 5701 5699 5697 5698 5697 5697 5699 5702
5818 5811 5803 5800 5791 5778 5761 5757 5753 5750 5746 5740 5733 5728 5727 5724 5718 5712 5705 5702 5698 5701 5701 5702 5703 5703 5702 5699 5697 5695 5694 5691 5687 5688 5692 5695 5693 5693
5816 5808 5798 5792 5776 5762 5746 5731 5732 5729 5727 5726 5723 5715 5711 5710 5706 5701 5695 5692 5688 5686 5688 5688 5691 5691 5693 5691 5690 5688 5684 5682 5682 5680 5678 5682 5684 5682
5794 5782 5778 5771 5752 5736 5731 5719 5712 5707 5714 5703 5703 5706 5698 5695 5695 5688 5680 5675 5671 5672 5677 5670 5672 5670 5676 5681 5679 5677 5675 5676 5674 5672 5672 5674 5675 5677
5784 5775 5772 5771 5754 5752 5718 5698 5706 5713 5707 5693 5688 5685 5681 5676 5674 5669 5669 5666 5656 5650 5656 5654 5655 5652 5650 5659 5664 5660 5659 5660 5664 5666 5665 5666 5669 5667
5784 5776 5765 5761 5751 5740 5728 5731 5717 5702 5697 5684 5674 5674 5671 5661 5657 5655 5660 5654 5650 5643 5644 5639 5636 5638 5637 5639 5643 5648 5646 5647 5649 5651 5651 5653 5657 5659
5781 5771 5762 5753 5742 5725 5712 5715 5710 5694 5687 5678 5671 5664 5654 5650 5645 5638 5640 5639 5635 5637 5632 5631 5628 5626 5622 5622 5627 5630 5632 5636 5635 5636 5637 5637 5639 5644
5767 5754 5741 5736 5727 5720 5708 5700 5696 5694 5674 5666 5657 5648 5640 5634 5630 5626 5623 5621 5617 5619 5620 5616 5615 5614 5612 5612 5611 5616 5616 5617 5625 5626 5626 5626 5626 5627
5752 5742 5733 5722 5715 5703 5693 5687 5682 5671 5659 5648 5634 5627 5626 5622 5615 5612 5610 5606 5603 5601 5600 5603 5600 5600 5599 5603 5604 5605 5604 5608 5613 5614 5616 5620 5622 5621
5732 5723 5714 5710 5699 5691 5681 5672 5662 5654 5641 5627 5622 5617 5609 5606 5604 5604 5599 5593 5591 5590 5591 5591 5587 5584 5588 5590 5593 5592 5593 5601 5604 5603 5605 5608 5614 5617
5714 5707 5698 5689 5681 5671 5663 5655 5643 5634 5625 5617 5611 5611 5600 5594 5594 5593 5584 5579 5579 5579 5583 5582 5577 5571 5572 5580 5584 5588 5587 5592 5596 5596 5598 5599 5607 5613
5695 5689 5681 5673 5666 5657 5647 5636 5627 5620 5611 5602 5596 5594 5590 5583 5576 5576 5573 5569 5566 5566 5566 5568 5565 5562 5557 5560 5566 5578 5580 5582 5586 5591 5596 5600 5604 5610
5673 5668 5663 5655 5646 5639 5635 5625 5616 5607 5599 5591 5585 5583 5577 5570 5566 5564 5560 5555 5551 5551 5552 5557 5559 5559 5555 5553 5554 5564 5575 5576 5579 5583 5591 5592 5600 5605
5652 5644 5637 5633 5625 5618 5616 5611 5600 5599 5585 5579 5577 5574 5567 5559 5552 5547 5542 5539 5537 5537 5542 5549 5551 5547 5544 5543 5547 5550 5561 5571 5574 5577 5584 5584 5590 5596
5631 5628 5622 5605 5600 5601 5599 5591 5590 5585 5575 5572 5568 5562 5552 5541 5534 5528 5525 5524 5523 5526 5532 5535 5535 5534 5535 5534 5536 5541 5546 5558 5564 5569 5578 5581 5586 5590